Theta_e
300 301 301 302 302 303 303 303 303 303 304 304 303 303 305 304 304 303 304 305 304 305 304 306 307 307 306 308 309 312 312 314 316 321 322 320 321 323 325 329 332 330 335 334 336 336 337 339 339 341 345 345 345 345
301 302 302 302 302 303 303 304 302 303 303 301 302 303 303 304 303 302 303 303 302 303 305 305 306 306 306 307 308 308 310 311 314 322 325 326 331 334 330 330 330 333 333 334 337 339 343 340 341 340 341 345 345 345
301 302 301 302 303 303 302 303 303 302 301 302 302 302 303 303 302 302 303 304 303 304 306 307 308 307 307 306 305 308 310 310 313 314 316 323 330 335 340 333 334 339 334 337 344 343 340 338 338 339 341 342 345 346
301 302 302 302 302 302 301 301 301 302 302 301 301 303 303 302 302 303 303 303 303 304 306 307 307 308 308 308 307 306 308 311 311 311 316 323 327 332 336 339 346 336 339 343 346 341 339 337 336 337 337 338 340 341
301 302 302 302 301 301 301 302 302 302 302 302 302 302 301 302 302 302 302 303 303 303 307 308 307 310 309 307 308 307 308 310 310 314 317 323 325 329 333 337 331 331 336 346 347 339 341 336 332 332 332 332 332 335
301 301 301 301 301 301 302 302 302 302 301 301 301 302 302 301 301 303 307 303 303 305 307 308 310 312 313 309 311 311 311 311 312 313 318 319 320 324 334 333 328 330 332 337 339 335 330 328 326 324 325 326 326 327
301 301 301 301 301 301 301 300 300 301 301 301 300 300 300 301 303 305 306 304 303 304 305 309 312 315 315 314 313 314 313 313 314 313 319 320 320 318 327 331 328 328 332 332 329 328 328 326 326 324 325 325 323 325
301 301 301 301 301 301 301 302 302 301 301 301 301 301 301 301 302 303 303 304 304 303 304 310 313 317 314 316 316 315 315 314 315 319 318 319 320 326 327 326 325 325 327 326 326 326 327 325 324 325 323 324 325 326
301 301 301 301 301 301 301 301 302 302 303 302 303 303 304 305 306 309 305 305 303 303 306 306 311 319 316 318 315 314 313 316 318 318 316 318 322 324 325 323 322 322 323 323 323 322 322 323 321 323 324 325 322 325
301 301 301 301 301 301 301 301 301 303 304 305 306 307 309 309 307 307 307 308 307 307 307 311 314 318 317 315 315 316 316 319 318 319 321 322 322 322 322 321 322 322 321 320 321 322 322 324 324 321 323 325 325 325
301 301 301 301 301 302 303 303 303 303 307 308 309 310 308 308 310 312 312 312 313 314 314 316 318 319 316 321 320 321 322 322 324 327 326 323 319 323 322 323 322 322 321 321 322 322 320 321 323 324 324 324 325 325
301 301 301 301 302 303 304 304 304 306 307 305 305 306 308 311 313 313 315 315 317 319 318 320 319 318 317 318 323 319 321 322 325 324 325 321 321 322 322 322 323 323 322 323 321 319 319 322 323 323 324 323 324 324
301 301 301 301 302 303 304 303 303 303 306 308 310 312 312 314 317 315 319 318 319 319 320 321 321 319 321 320 322 327 321 324 323 326 323 321 321 322 323 323 322 321 320 321 321 321 321 321 320 321 323 323 324 324
301 301 301 303 303 303 305 304 304 306 309 310 312 315 313 316 316 318 318 318 319 317 318 318 319 319 320 320 323 323 324 323 324 325 326 324 322 321 322 322 321 320 320 320 319 319 319 319 320 322 323 323 323 325
301 302 304 305 303 304 305 305 308 310 310 312 312 313 315 314 316 315 315 315 316 317 318 319 318 320 320 321 321 323 324 326 323 324 324 323 321 321 320 320 321 320 319 319 319 319 319 319 320 321 322 323 324 325
302 306 306 304 303 305 306 308 311 312 313 314 314 314 314 314 314 314 316 317 317 318 318 318 319 320 322 322 323 321 322 319 319 321 322 323 321 322 322 322 321 321 320 320 319 318 318 319 320 319 319 319 320 322
304 307 305 304 304 307 309 311 312 312 313 312 312 312 312 313 314 315 316 317 317 319 319 319 321 322 319 320 321 318 317 316 319 319 321 323 323 323 322 322 322 321 322 321 319 319 320 319 318 319 320 318 318 318
305 306 305 304 305 309 311 310 312 311 311 311 312 312 313 313 315 316 316 316 318 319 319 319 318 320 321 321 321 320 320 321 322 324 325 324 323 323 321 322 320 320 320 320 319 320 319 319 318 318 317 317 318 316
304 305 304 305 306 309 311 311 312 312 311 312 312 313 313 314 315 315 316 317 317 317 317 317 318 319 319 319 320 320 321 324 325 325 324 322 321 321 321 320 320 319 318 316 317 317 317 317 316 316 315 316 316 316
307 307 307 306 308 312 312 312 311 312 312 313 313 313 313 315 315 316 315 315 315 316 316 315 316 317 318 318 318 319 322 323 325 324 323 319 317 316 316 315 316 315 315 315 313 311 314 314 313 312 312 313 314 314
310 310 308 310 311 311 313 313 314 313 313 314 314 314 315 317 316 318 319 317 318 319 320 321 322 322 321 321 320 320 321 320 321 323 322 320 317 316 314 314 313 313 313 313 313 312 311 311 309 309 309 310 310 310
310 308 311 311 313 313 315 313 314 313 313 314 316 316 317 317 318 316 317 318 318 319 319 319 322 324 323 321 320 316 315 318 319 318 317 318 318 316 315 313 313 313 312 311 310 309 308 307 307 306 307 307 308 308
309 309 313 313 316 314 315 315 316 315 317 317 317 317 318 317 317 316 318 318 319 318 320 319 316 313 313 312 311 310 311 311 312 313 312 313 313 312 311 311 310 310 310 308 307 307 307 305 306 305 306 306 306 308
308 311 315 316 318 318 318 319 318 318 318 318 319 320 320 320 320 319 318 319 319 318 316 318 313 314 314 312 312 310 308 308 309 310 309 309 311 311 310 310 309 308 307 306 306 305 305 304 304 305 305 305 305 306
314 313 320 321 320 321 320 320 320 319 320 320 320 320 320 319 319 319 318 319 319 315 313 312 312 312 311 311 309 307 305 306 307 309 307 307 307 308 309 309 308 307 306 305 304 304 304 304 304 304 304 305 304 304
318 321 320 321 321 321 320 320 320 320 320 319 319 319 320 321 319 320 318 316 312 312 312 312 311 311 310 308 308 306 304 303 304 306 306 305 305 305 306 306 306 305 303 302 302 302 302 303 303 304 304 303 303 303
321 321 323 321 320 320 321 320 320 320 319 319 320 319 319 319 319 313 309 306 308 308 308 308 307 307 307 306 305 304 303 302 302 302 302 304 304 303 302 302 302 300 300 301 301 301 301 300 300 300 300 300 300 300
322 323 323 322 322 321 322 320 318 318 319 319 319 320 319 317 314 310 309 308 308 307 306 306 306 305 305 304 303 302 301 300 300 300 301 302 301 301 299 299 298 297 298 298 297 297 297 296 296 296 297 297 297 297
323 322 323 323 321 321 321 320 319 318 317 318 320 316 311 309 309 309 308 307 307 304 306 306 304 303 303 302 301 300 299 298 298 299 299 300 299 297 296 296 296 296 296 296 295 294 294 294 294 294 295 296 295 295
321 321 322 321 322 323 321 319 318 317 315 314 312 310 310 309 309 309 310 310 308 306 306 305 304 302 300 299 299 298 297 296 295 295 295 296 295 294 294 294 294 294 294 294 294 294 293 293 294 294 293 293 293 292
320 319 320 323 322 321 318 317 316 315 314 314 313 312 311 311 311 311 307 307 306 305 304 303 301 300 298 297 297 296 296 295 294 292 291 291 291 291 292 292 292 293 293 293 293 293 293 292 292 292 292 291 291 291
319 319 319 319 320 320 319 320 317 317 316 315 314 313 312 313 313 310 305 304 304 303 301 301 299 298 296 296 295 295 293 294 293 291 289 288 289 289 290 291 291 291 291 292 292 292 292 291 291 291 291 291 290 291
318 318 317 317 317 316 319 322 321 319 317 316 316 314 314 314 312 308 305 303 302 301 300 299 298 297 296 295 294 294 293 293 291 289 288 288 287 288 289 290 290 291 291 292 291 291 291 290 290 290 290 290 290 290
Wind_Speed
31 32 32 30 30 29 27 25 21 20 17 16 15 13 13 13 13 13 12 16 14 3 11 20 23 22 17 14 10 10 5 4 3 6 10 13 14 19 20 22 24 23 21 19 19 23 23 5 10 10 6 10 13 14
30 31 29 28 28 27 24 21 16 16 14 12 14 13 9 10 11 11 9 13 17 6 9 21 24 26 25 21 17 14 10 3 3 4 2 6 4 8 16 16 25 24 20 17 7 9 10 9 7 6 4 8 9 10
26 25 24 25 25 22 17 15 13 12 11 14 9 8 9 10 11 14 13 11 6 3 9 15 17 29 32 34 33 13 10 9 3 8 4 3 7 4 9 12 16 7 13 18 12 12 13 10 10 6 5 3 11 14
24 25 22 21 21 18 16 12 11 12 11 9 9 9 10 9 8 7 8 8 8 3 4 11 13 5 6 17 27 27 18 6 2 6 6 3 4 4 3 6 4 6 14 7 17 16 16 15 14 10 10 10 12 16
22 21 20 18 18 18 16 13 12 12 10 11 10 10 9 6 9 12 13 12 14 4 3 10 23 18 21 19 19 23 19 12 6 3 3 3 4 3 6 1 5 2 5 4 8 17 17 14 11 12 11 12 13 15
20 19 19 19 19 18 17 15 14 12 12 11 10 9 8 6 11 12 2 3 7 7 3 4 8 6 2 14 10 13 11 6 2 1 4 3 8 7 5 3 8 6 10 10 15 19 20 18 17 15 14 12 11 16
19 19 19 19 19 18 17 17 16 14 13 12 12 12 11 11 10 5 6 8 6 4 1 4 4 4 5 10 10 8 9 6 3 2 3 4 4 6 3 3 7 10 9 9 18 20 17 13 11 12 13 15 8 14
19 18 19 19 18 17 17 20 20 19 18 17 16 16 16 15 14 8 9 5 4 2 3 3 4 4 9 8 7 6 8 7 8 2 2 3 5 2 1 5 11 10 15 18 19 18 17 15 13 14 13 13 13 12
20 19 18 17 17 16 19 22 24 26 21 16 15 13 8 5 3 1 3 2 10 4 2 3 2 4 10 4 2 5 2 4 3 1 2 3 1 3 5 11 14 12 9 13 15 17 17 16 14 11 11 10 8 8
20 20 19 18 19 20 22 25 28 27 13 11 7 4 3 2 7 3 6 3 4 5 4 4 3 4 5 6 6 5 4 2 1 4 3 2 4 8 9 11 11 12 11 11 13 15 13 13 10 8 10 9 4 6
21 20 18 18 22 28 29 28 28 24 10 7 4 3 13 12 4 3 2 3 3 3 3 3 5 6 5 3 5 2 3 5 3 2 1 3 3 6 10 10 9 10 11 10 10 9 8 4 5 4 2 7 8 5
20 19 18 20 25 36 33 27 22 15 11 8 10 11 7 3 2 4 3 4 4 3 2 4 6 4 3 1 3 7 2 1 3 2 4 2 3 6 8 10 8 6 7 8 10 9 5 6 4 4 4 3 1 2
21 22 23 24 27 38 34 23 19 14 8 3 4 3 4 3 4 6 7 3 6 7 2 4 5 3 2 8 6 5 2 4 4 4 3 3 1 3 7 6 10 8 10 8 11 9 4 9 6 3 4 5 6 4
25 26 24 20 30 38 30 19 14 9 4 3 5 5 5 4 5 5 9 9 8 10 9 8 7 4 5 2 4 5 3 2 4 4 5 6 7 3 4 7 8 10 8 8 9 7 8 7 7 5 9 7 6 8
29 24 12 23 36 35 24 15 10 6 5 3 4 5 4 6 10 9 8 9 10 10 8 7 5 1 6 5 6 7 5 6 6 3 3 5 5 4 5 6 6 6 9 7 6 7 8 8 8 7 12 9 8 9
26 12 15 33 35 31 18 10 4 4 1 1 1 2 6 7 11 12 11 11 11 10 7 1 4 5 9 5 7 8 4 5 3 3 2 5 4 5 4 6 6 6 7 8 6 9 9 6 5 8 10 9 10 10
19 11 29 33 34 21 12 6 4 3 5 3 4 9 9 9 9 11 11 11 12 9 8 5 7 6 2 4 5 5 3 3 3 2 2 6 6 6 5 7 8 6 7 9 6 6 4 5 9 9 7 7 6 8
14 22 27 26 27 14 5 7 4 4 5 7 8 9 9 7 9 9 8 9 7 8 9 6 6 11 5 5 4 1 2 2 1 5 5 6 6 6 6 5 8 9 9 8 8 6 10 9 6 5 4 3 4 7
22 20 18 22 13 5 4 4 5 4 4 6 8 7 7 7 7 7 7 5 5 7 5 5 7 5 5 2 7 7 7 6 5 5 6 7 8 9 7 7 10 10 12 12 13 12 11 10 12 15 15 14 12 11
12 10 18 11 6 4 3 2 3 3 5 4 6 7 6 7 7 8 9 9 9 9 8 5 9 8 7 7 7 9 9 7 7 5 6 5 11 12 12 11 9 8 9 8 13 16 11 12 13 14 13 13 11 13
8 10 10 10 4 6 4 4 3 3 4 4 6 4 7 10 10 10 11 10 10 9 8 7 8 8 10 11 13 12 9 10 8 6 5 6 12 11 8 9 8 8 9 10 8 9 10 11 13 14 13 10 11 13
8 13 5 5 3 3 3 6 4 5 3 3 6 8 6 5 7 7 6 7 3 4 4 4 6 8 9 12 12 14 12 7 12 8 7 6 5 5 5 7 7 7 9 10 11 10 11 13 11 14 12 12 12 12
9 5 4 3 3 3 2 5 2 4 4 3 4 3 2 2 3 4 4 5 3 4 7 6 10 13 12 16 19 22 21 18 10 11 11 7 6 6 7 7 8 7 8 11 11 11 12 12 12 13 12 13 13 12
6 5 4 4 4 3 2 3 2 1 2 3 3 3 3 3 2 2 3 2 2 2 7 12 15 9 10 15 11 15 22 21 18 15 17 16 10 9 5 4 6 8 8 11 14 15 15 15 15 13 13 14 13 14
4 4 3 2 2 3 2 3 3 2 3 3 2 2 2 1 2 3 5 4 8 9 9 10 9 8 9 10 12 18 22 21 16 11 17 17 17 16 17 19 16 19 17 16 18 18 18 17 16 15 15 13 14 15
2 2 2 6 3 4 5 4 3 4 3 3 3 2 1 1 2 5 4 9 9 9 9 10 9 9 10 15 11 14 20 21 18 14 13 13 13 13 11 10 9 16 22 20 18 19 19 17 17 17 17 18 16 17
4 5 1 1 3 3 3 1 1 2 2 3 3 3 2 4 6 3 3 5 5 13 16 21 19 18 14 15 15 15 16 19 18 18 18 13 9 14 16 15 15 19 18 16 17 18 18 20 21 21 18 18 18 17
3 5 6 6 3 2 5 6 5 6 7 5 5 6 4 5 3 4 6 14 16 23 21 15 10 8 11 15 17 19 16 19 19 18 16 12 15 17 17 17 18 17 16 12 15 17 16 18 20 20 18 17 17 17
3 3 5 7 4 3 5 5 6 6 9 8 3 4 3 2 7 11 12 10 7 5 2 6 10 13 15 17 17 17 16 19 19 16 16 10 13 17 18 18 18 17 17 17 13 9 12 16 16 16 15 17 18 18
8 4 1 5 10 6 7 8 9 9 9 10 7 8 4 2 4 2 2 3 3 4 8 13 14 16 18 17 16 17 15 17 19 18 12 12 17 20 19 18 18 17 17 17 16 16 15 16 15 16 18 17 17 17
4 7 6 5 5 3 9 8 11 11 8 8 7 7 4 3 5 2 9 10 12 12 14 15 15 16 17 16 15 13 14 13 14 16 18 17 16 16 16 16 17 17 16 16 15 15 17 18 18 17 16 16 15 15
3 3 3 3 4 5 8 4 1 5 4 4 5 3 3 2 2 2 14 16 16 15 12 13 14 14 14 15 15 13 12 12 13 15 18 15 14 14 15 16 16 17 16 15 15 16 16 16 16 15 16 16 16 16
3 7 6 6 3 0 5 5 3 3 3 4 3 2 5 5 4 5 6 11 11 13 14 12 10 11 10 12 14 14 12 10 6 12 18 15 12 12 14 16 17 19 19 17 18 17 17 17 16 17 16 16 16 16
Wind_Direction
326 323 321 319 318 317 312 310 309 311 303 292 291 282 270 274 267 246 251 236 221 234 266 269 273 277 281 287 263 280 264 163 227 240 238 239 239 236 239 225 209 205 202 217 211 229 235 78 188 229 6 323 315 310
331 330 323 321 323 321 318 318 313 312 308 312 306 296 267 272 272 245 266 263 246 238 268 298 278 271 261 256 272 283 291 299 295 273 343 320 288 289 235 251 210 206 210 207 228 206 83 53 57 64 11 327 320 321
337 338 339 339 339 336 331 326 323 323 314 316 320 312 302 284 274 244 254 266 280 291 273 254 255 256 239 239 241 261 258 237 235 328 315 276 267 315 263 230 221 338 232 214 141 122 104 102 85 76 86 33 9 17
343 345 344 346 352 353 353 349 340 334 337 333 321 314 310 299 281 262 259 270 244 267 278 292 266 271 242 219 209 221 241 118 41 326 300 260 282 334 261 327 337 37 284 129 103 119 105 89 81 87 72 60 60 39
351 353 354 358 359 357 351 347 344 341 335 327 319 318 321 304 297 292 267 254 246 200 287 296 300 269 231 219 200 209 226 254 282 316 285 265 284 321 291 266 3 17 22 350 208 152 86 102 83 93 90 81 68 80
7 7 4 2 3 5 4 3 356 347 340 336 327 324 311 294 295 294 222 87 264 229 278 300 313 279 293 174 192 192 205 200 141 318 270 268 269 341 316 48 6 340 280 313 81 95 106 99 88 70 61 62 72 89
8 7 5 2 -0 0 0 358 352 344 335 325 318 313 306 297 298 294 313 319 323 141 309 283 270 264 180 165 179 180 185 148 124 232 250 287 311 355 329 35 28 14 46 94 100 99 86 73 78 70 48 26 35 63
1 357 359 -0 4 7 8 1 352 342 330 319 313 308 297 292 280 246 277 259 206 158 239 272 287 283 196 164 150 171 174 164 184 207 293 307 328 293 281 116 93 72 77 68 75 79 89 80 58 48 47 27 16 36
4 1 355 357 359 354 348 350 348 344 330 322 312 300 296 241 257 66 18 91 191 211 302 245 256 268 143 341 220 152 133 202 78 76 259 199 266 268 96 76 70 69 76 93 77 72 65 53 59 25 23 39 23 37
359 358 357 355 353 349 346 342 342 343 327 318 311 227 261 39 302 252 154 199 201 194 224 257 269 301 17 185 142 138 179 82 242 225 214 105 39 45 77 75 76 72 79 83 77 66 59 62 21 38 23 352 16 7
355 355 352 354 356 349 339 333 332 342 340 334 317 294 330 318 289 218 240 222 221 243 227 308 315 333 61 4 37 349 154 179 202 163 183 75 350 52 52 62 72 77 86 79 80 82 81 70 19 333 342 298 321 23
344 342 340 340 343 349 345 337 333 338 328 311 295 297 286 303 306 309 304 285 258 325 120 305 327 320 166 8 267 173 199 104 83 256 86 69 322 55 55 77 63 101 96 111 112 102 61 350 333 297 136 154 260 20
340 337 328 326 335 346 342 342 340 332 334 248 235 315 345 9 348 339 355 329 341 349 274 240 294 353 222 213 239 150 108 50 121 58 43 95 208 77 79 119 119 113 117 125 132 134 179 218 191 113 84 8 115 84
343 339 336 337 339 344 343 342 351 3 332 18 1 17 22 344 334 337 327 333 304 351 348 -0 324 345 343 308 75 342 85 160 71 58 28 98 86 21 33 68 111 106 100 106 106 91 98 83 52 23 90 91 70 60
339 339 338 340 337 344 343 346 8 350 360 41 22 12 349 297 291 270 296 340 353 334 336 343 279 345 16 30 14 9 41 45 30 26 63 96 136 171 93 79 68 84 108 95 62 74 51 42 66 50 54 58 68 91
342 346 343 334 340 345 347 348 334 317 214 254 133 2 335 327 357 1 357 358 350 317 309 272 352 27 29 23 20 13 36 31 13 353 45 91 42 83 79 88 80 43 40 90 99 71 59 53 70 65 56 52 50 48
341 338 329 335 340 349 347 347 319 359 6 17 328 19 357 355 355 359 348 353 332 356 2 17 30 25 85 37 39 28 352 301 282 294 316 49 40 43 42 42 46 66 29 45 64 74 355 24 63 49 44 15 51 45
316 322 325 339 345 340 347 5 321 358 14 24 8 7 350 1 3 353 356 7 0 4 32 50 36 40 46 33 45 106 271 298 350 76 79 71 59 48 51 63 57 51 55 27 8 42 42 6 4 64 118 13 215 82
315 319 330 344 347 316 344 31 339 4 10 41 353 5 3 9 8 7 3 12 27 20 43 39 48 39 56 66 22 33 47 34 43 65 57 53 55 46 49 59 75 64 68 49 20 40 63 42 16 11 9 6 358 40
330 334 334 341 348 306 338 32 295 341 11 342 11 6 19 13 17 21 27 32 49 56 64 67 64 52 43 40 24 27 25 21 29 54 45 43 79 76 54 52 51 55 65 61 67 28 24 20 19 5 11 342 341 347
348 325 342 10 16 15 355 347 26 19 330 341 9 351 33 28 28 30 16 18 42 32 42 36 48 49 48 40 36 26 24 24 33 33 38 22 9 29 36 49 51 46 33 29 17 25 10 19 359 346 334 334 349 309
329 346 330 357 350 6 34 25 2 347 326 306 15 32 36 19 24 13 2 48 48 29 16 7 35 56 55 51 45 35 22 56 73 63 35 330 5 41 39 27 13 14 22 28 4 6 1 12 357 341 340 353 331 334
343 340 317 344 346 42 328 346 32 24 21 13 1 56 40 27 42 33 35 10 8 340 19 68 80 66 67 63 50 30 15 6 15 36 13 6 78 31 3 15 5 23 2 11 356 3 357 353 1 337 347 351 340 341
347 348 352 358 355 5 316 15 23 355 70 29 30 17 60 31 39 86 69 46 26 165 58 29 34 38 48 35 33 34 11 9 3 21 25 356 351 2 340 343 3 359 15 1 359 354 350 348 337 342 356 340 349 356
321 343 291 306 206 308 28 25 33 66 73 32 63 92 78 358 67 72 54 28 15 33 31 42 49 39 28 26 23 20 15 7 4 357 16 359 358 352 354 358 16 45 18 4 348 344 343 340 340 344 335 342 356 346
13 99 10 358 16 346 3 3 22 14 358 12 19 351 196 303 72 57 29 359 16 21 24 22 19 20 32 22 13 9 5 360 358 354 5 358 10 7 3 357 354 359 5 344 339 349 336 337 339 340 346 352 5 360
0 14 1 124 307 313 326 45 63 323 345 5 312 300 301 53 55 63 72 11 17 11 23 23 25 22 12 2 359 -0 358 359 4 348 339 332 22 39 20 358 359 7 339 354 357 347 356 350 344 345 344 334 330 333
345 349 340 343 341 41 329 350 16 15 3 2 1 357 47 38 64 25 42 34 33 36 28 15 360 345 351 356 355 353 8 1 360 360 350 6 22 23 13 359 1 355 353 18 1 352 1 352 343 332 334 330 326 332
268 20 355 328 14 55 351 33 10 23 355 339 33 67 76 68 20 52 42 38 17 44 326 316 12 358 1 360 6 6 22 12 9 7 1 4 8 5 2 355 351 351 350 347 359 15 17 356 337 329 324 330 344 352
5 21 84 349 45 39 38 39 45 54 56 70 92 97 89 115 158 99 48 25 3 334 345 2 15 19 2 1 9 6 33 27 22 16 359 352 352 352 351 348 350 349 349 349 346 347 9 348 347 2 5 357 353 347
5 12 22 64 56 25 92 84 73 68 74 84 95 118 143 188 137 322 19 344 357 14 19 0 12 23 6 7 14 13 359 20 25 14 6 351 355 356 353 356 356 355 355 351 355 357 4 359 4 3 1 355 351 342
3 16 3 352 94 105 142 134 54 91 128 139 124 121 140 180 101 38 21 6 11 13 25 13 15 21 16 4 8 11 357 5 21 12 8 6 5 2 360 6 3 3 355 353 360 6 10 3 359 359 355 352 349 347
23 43 6 358 12 62 127 135 162 164 218 109 95 40 75 69 79 24 34 20 21 5 0 4 12 9 20 10 6 358 357 23 42 44 31 25 16 9 5 13 6 4 359 3 5 3 4 0 360 356 352 348 346 345